Weather History for Barking Sands, HI

Change the Weather History Date:

Wednesday, October 31, 2012

  Actual Average Record
Temperature  
Mean Temperature 77 °F -  
Max Temperature 84 °F 85 °F 91 °F (1974)
Min Temperature 70 °F 65 °F 62 °F (1971)
Cooling Degree Days 12    
Growing Degree Days 27 (Base 50)    
Moisture  
Dew Point 61 °F    
Average Humidity 60    
Maximum Humidity 84    
Minimum Humidity 19    
Precipitation  
Precipitation 0.00 in - - ()
Sea Level Pressure  
Sea Level Pressure 30.03 in    
Wind  
Wind Speed 4 mph (ENE)    
Max Wind Speed 12 mph    
Max Gust Speed -    
Visibility 10 miles    
Events      
Averages and records for this station are not official NWS values.
T = Trace of Precipitation, MM = Missing Value Source: NWS Daily Summary

Daily Weather History Graph

Daily Weather History Graph

Search for Another Location

Airport:

Trip Planner

Search our weather history database for the weather conditions in past years. The results will help you decide how hot, cold, wet, or windy it might be!

Date:

Astronomy

Oct. 31, 2012 Rise Set
Actual Time 6:42 AM HST 6:02 PM HST
Civil Twilight 6:19 AM HST 6:25 PM HST
Nautical Twilight 5:53 AM HST 6:51 PM HST
Astronomical Twilight 5:27 AM HST 7:18 PM HST
Moon 7:35 PM HST (10/31) 8:21 AM HST (10/31)
Length of Visible Light 12h 05m
Length of Day
11h 19m
Waning Gibbous, 96% of the Moon is Illuminated
Oct 31
Waning Gibbous
Nov 6
Last Quarter
Nov 13
New
Nov 20
First Quarter
Nov 28
Full

Hourly Weather History & Observations

Time (HST) Temp. Heat Index Dew Point Humidity Pressure Visibility Wind Dir Wind Speed Gust Speed Precip Events Conditions
12:56 AM 75.0 °F - 64.9 °F 71% 30.06 in 10.0 mi Calm Calm - N/A   Partly Cloudy
1:56 AM 72.0 °F - 64.0 °F 76% 30.06 in 10.0 mi SE 5.8 mph - N/A   Clear
2:56 AM 72.0 °F - 62.1 °F 71% 30.04 in 10.0 mi ESE 4.6 mph - N/A   Clear
3:56 AM 71.1 °F - 64.0 °F 78% 30.04 in 10.0 mi East 3.5 mph - N/A   Clear
4:56 AM 71.1 °F - - N/A% 30.03 in 10.0 mi NE 3.5 mph - N/A   Clear
5:56 AM 70.0 °F - - N/A% 30.04 in 10.0 mi East 4.6 mph - N/A   Clear
6:56 AM 70.0 °F - 64.9 °F 84% 30.06 in 10.0 mi East 4.6 mph - N/A   Clear
7:56 AM 75.0 °F - 70.0 °F 84% 30.07 in 10.0 mi East 3.5 mph - N/A   Clear
8:56 AM 80.1 °F 83.8 °F 72.0 °F 76% 30.07 in 10.0 mi WNW 3.5 mph - N/A   Clear
9:56 AM 81.0 °F 85.8 °F 73.0 °F 77% 30.09 in 10.0 mi NW 6.9 mph - N/A   Clear
10:56 AM 81.0 °F 83.8 °F 68.0 °F 65% 30.08 in 10.0 mi NW 4.6 mph - N/A   Clear
11:56 AM 82.9 °F 83.3 °F 61.0 °F 47% 30.06 in 10.0 mi NW 8.1 mph - N/A   Clear
12:56 PM 84.0 °F 84.5 °F 62.1 °F 47% 30.03 in 10.0 mi NNW 11.5 mph - N/A   Clear
1:56 PM 84.0 °F 83.3 °F 57.0 °F 40% 30.00 in 10.0 mi NW 9.2 mph - N/A   Clear
2:56 PM 82.9 °F 82.8 °F 59.0 °F 44% 29.98 in 10.0 mi West 4.6 mph - N/A   Clear
3:56 PM 82.0 °F 81.7 °F 57.0 °F 42% 29.97 in 10.0 mi SSW 5.8 mph - N/A   Clear
4:56 PM 82.0 °F 81.6 °F 55.9 °F 41% 29.98 in 10.0 mi SSW 8.1 mph - N/A   Scattered Clouds
5:56 PM 80.1 °F - 34.0 °F 19% 29.99 in 10.0 mi SW 9.2 mph - N/A   Partly Cloudy
6:56 PM 80.1 °F 80.7 °F 59.0 °F 48% 30.00 in 10.0 mi Variable 3.5 mph - N/A   Scattered Clouds
7:56 PM 78.1 °F - 57.9 °F 50% 30.02 in 10.0 mi East 3.5 mph - N/A   Clear
8:56 PM 75.0 °F - 62.1 °F 64% 30.03 in 10.0 mi East 3.5 mph - N/A   Clear
9:56 PM 73.9 °F - 60.1 °F 62% 30.04 in 10.0 mi East 3.5 mph - N/A   Clear
10:56 PM 72.0 °F - 64.9 °F 78% 30.03 in 10.0 mi ESE 4.6 mph - N/A   Clear
11:56 PM 72.0 °F - 59.0 °F 64% 30.03 in 10.0 mi ENE 4.6 mph - N/A   Clear